www.pogodaiklimat.ru

Погода и климат >> Архив погоды >> Россия >> Приморский край >> Тимирязевский


АРХИВ ПОГОДЫ в Тимирязевском

Время (UTC), дата Ветер
(напр.,м/с)
 
Видим.   Явления Облачность Т
(С)
Тd
(С)
f
(%)
Тe
(С)
Тes
(С)
Комфортность P
(гПа)
Po
(гПа)
Тmin
(С)
Tmax
(С)
R
(мм)
R24
(мм)
S
(см)
06 19.06 ЮЗ 2 20 км 8/3 1000 м
[Cu hum Ci fib]
+26.2 +9.1 34 +27 +34 жарко 1001.8 997.8
09 19.06 Ю 5 50 км 10/8 600 м
[Cb cap Ci fib]
+22.5 +10.6 47 +24 +25 комфорт 1000.7 996.7 +26.6
12 19.06 Ю 4 50 км {ливн. осадки} 10/8 600 м
[Cb cap Ci fib]
+16.4 +14.1 86 +16 +16 1002.4 998.2
15 19.06 Ю 3 50 км 10/8 600 м
[Cb cap Ci fib]
+14.8 +13.3 91 +14 +14 1002.5 998.3
18 19.06 Ю 3 50 км 10/6 300 м
[Sc diur, vesp Ci fib]
+14.6 +13.6 94 +14 +14 1002.3 998.1
21 19.06 Ю 4 10 км 10/10 300 м
[St]
+14.7 +14.1 96 +13 +13 1002.6 998.4 +14.5 0.4
00 20.06 Ю 6-10
{11}
20 км 10/10 300 м
[St]
+15.7 +13.9 89 +14 +14 1003.2 999.0
03 20.06 Ю 6-11
{13}
20 км 10/8 300 м
[St Ci fib]
+17.1 +14.0 82 +16 +17 1002.8 998.7
06 20.06 Ю 7-14
{17}
20 км 10/4 300 м
[St Ci fib]
+17.7 +12.8 73 +17 +19 1001.2 997.1
09 20.06 З 2
{16}
20 км слаб. ливневой дождь {гроза} 10/10 300 м
[Cb cap]
+14.4 +14.0 97 +14 +14 1004.1 999.9 +18.2 8
12 20.06 штиль 0 20 км {гроза, ливн. осадки} 4/4 300 м
[St]
+12.2 +11.6 96 +12 +12 1006.1 1001.9
15 20.06 Ю 2 20 км 10/4 300 м
[St Ci fib]
+11.8 +11.5 98 +11 +11 1007.0 1002.8
18 20.06 Ю 3 20 км 10/10 300 м
[St]
+11.0 +10.7 98 +9 +9 1006.5 1002.3
21 20.06 Ю 2 20 км 10/10 300 м
[St]
+12.3 +11.9 97 +11 +11 1007.0 1002.8 +11.0 1
00 21.06 З 1 20 км в посл. час ливневой дождь 10/10 300 м
[St]
+15.4 +14.1 92 +16 +16 1007.7 1003.5
03 21.06 С 5
{11}
50 км слаб. ливневой дождь 10/10 300 м
[Cb cap]
+17.8 +14.6 82 +17 +17 1008.0 1003.9
06 21.06 С 4 50 км {ливн. осадки} 8/8 600 м
[Cb cap]
+20.0 +13.6 67 +22 +24 комфорт 1007.8 1003.7
09 21.06 С 4 50 км 3/3 600 м
[Cb cap]
+21.3 +12.9 59 +24 +25 комфорт 1007.7 1003.6 +21.7 0.0
12 21.06 СВ 1 50 км 3/3 1000 м
[Sc diur, vesp]
+16.8 +14.5 86 +18 +18 1008.8 1004.6
15 21.06 Ю 1 50 км 8/8 1000 м
[Sc]
+14.7 +14.6 99 +15 +15 1009.0 1004.8
18 21.06 Ю 1 50 км 4/4 1000 м
[Sc]
+13.5 +13.4 99 +14 +14 1009.1 1004.9
21 21.06 Ю 2 500 м туман ?/? +13.1 +13.0 99 +12 +12 1010.0 1005.8 +12.4
00 22.06 СЗ 1 4000 м дымка {туман} 8/8 300 м
[St]
+18.3 +15.5 84 +20 +23 1009.6 1005.5
03 22.06 СЗ 2 50 км 8/8 1000 м
[Cu med, cong]
+22.4 +16.6 70 +27 +31 душно 1008.7 1004.7
06 22.06 С 5 50 км 6/4 1000 м
[Cu med, cong Ci fib]
+24.3 +13.3 50 +26 +30 жарко 1007.5 1003.5
09 22.06 С 3 50 км 6/3 600 м
[Cb cap Cc]
+22.5 +13.8 58 +26 +27 жарко 1007.4 1003.4 +24.4
12 22.06 Ю 3 50 км 9/6 600 м
[Cb cap Ac trans]
+15.1 +14.0 93 +14 +14 1009.6 1005.4
15 22.06 Ю 3 50 км 8/8 600 м
[Sc diur, vesp]
+14.4 +13.7 96 +13 +13 1009.7 1005.5
18 22.06 Ю 1 4000 м дымка 10/10 300 м
[Sc diur, vesp]
+14.2 +14.0 99 +14 +14 1009.2 1005.1
21 22.06 Ю 1 4000 м дымка 10/10 300 м
[St]
+14.1 +14.0 99 +14 +14 1009.6 1005.4 +14.0
00 23.06 СЗ 1 4000 м дымка 10/8 600 м
[Sc Ci fib]
+16.7 +15.2 91 +18 +20 1010.2 1006.0
03 23.06 СЗ 2 20 км 8/8 1000 м
[Cu med, cong]
+23.1 +16.2 65 +28 +32 душно 1009.1 1005.1
06 23.06 СВ 3 50 км 1/1 600 м
[Sc]
+25.2 +13.4 48 +27 +37 жарко 1007.9 1003.9
09 23.06 С 3 50 км ясно +24.4 +13.9 52 +27 +29 жарко 1008.0 1004.0 +25.4
12 23.06 С 2 50 км ясно +20.0 +14.5 71 +23 +23 комфорт 1009.6 1005.5
15 23.06 Ю 2 50 км ясно +16.4 +15.7 96 +16 +16 1010.8 1006.6
18 23.06 Ю 3 50 км 4/4 300 м
[St]
+15.3 +15.2 99 +15 +15 1011.4 1007.2
21 23.06 Ю 3 4000 м дымка 10/10 300 м
[St]
+15.3 +15.1 99 +15 +15 1012.5 1008.4 +15.2
00 24.06 Ю 2 20 км 10/10 300 м
[St]
+17.1 +15.6 91 +17 +17 1013.3 1009.1
03 24.06 Ю 4 20 км 10/1 1000 м
[Cu hum Ci fib]
+22.3 +16.4 69 +27 +36 душно 1012.4 1008.4
06 24.06 Ю 5
{10}
20 км 8/1 1000 м
[Cu hum Ci fib]
+22.6 +16.2 67 +27 +32 душно 1012.2 1008.1
09 24.06 Ю 5
{11}
20 км 10/0
[Ac lent Ci fib]
+21.1 +15.1 69 +24 +25 комфорт 1011.9 1007.8 +23.0
12 24.06 Ю 4
{11}
20 км 8/3 300 м
[St Ci fib]
+17.0 +15.1 89 +17 +17 1012.7 1008.5
15 24.06 Ю 4-10
{10}
20 км 8/8 300 м
[St]
+16.4 +14.7 90 +16 +16 1013.5 1009.3
18 24.06 Ю 4
{11}
20 км 8/8 300 м
[St]
+16.2 +14.6 90 +15 +15 1013.8 1009.6
21 24.06 Ю 4
{12}
20 км 10/10 300 м
[St]
+16.9 +15.2 90 +16 +16 1014.0 1009.9 +16.2
00 25.06 Ю 5-10
{11}
20 км 10/10 300 м
[St]
+18.6 +16.3 86 +19 +19 1013.6 1009.5
03 25.06 Ю 7-14
{15}
20 км 10/3 300 м
[St Ci fib]
+21.4 +16.2 72 +25 +28 комфорт 1013.1 1009.0
06 25.06 Ю 7-14
{16}
20 км 10/3 300 м
[St Ci fib]
+21.1 +16.4 75 +25 +27 комфорт 1012.0 1007.9
09 25.06 Ю 6-13
{15}
20 км 10/8 300 м
[St Ci fib]
+19.3 +16.3 83 +21 +21 комфорт 1011.1 1007.0 +22.1
12 25.06 Ю 6-12
{15}
20 км 10/10 300 м
[St]
+18.2 +16.3 89 +18 +18 1011.9 1007.8
15 25.06 Ю 5-13
{15}
20 км 10/10 300 м
[St]
+17.8 +16.4 92 +17 +17 1011.8 1007.7
18 25.06 Ю 4
{11}
20 км 10/10 300 м
[St]
+17.6 +16.4 93 +17 +17 1011.1 1007.0
21 25.06 Ю 6-11
{11}
20 км 10/10 300 м
[St]
+17.7 +16.6 93 +17 +17 1010.1 1005.9 +17.5
00 26.06 Ю 5-10
{12}
20 км 9/9 300 м
[St]
+19.4 +17.3 88 +21 +22 комфорт 1009.2 1005.1
03 26.06 Ю 7-13
{13}
20 км 10/6 300 м
[St Cs]
+21.5 +17.5 78 +26 +27 душно 1007.5 1003.4

 

Местоположение метеостанции Тимирязевский (Приморский край, Россия): широта 43.88 долгота 131.90 высота над уровнем моря 36 м.

В архиве по умолчанию представлена погода в Тимирязевском за последнюю неделю. Архивные данные за месяц целиком и за предыдущие месяцы, начиная с января 2011 года, Вы можете получить, выбрав интересующий диапазон дат из раскрывающегося списка и нажав кнопку "Ввод!".


*Определитесь, кто Вы:
робот инопланетянин человек

Внимание! Время в таблицах - всемирное. Для получения местного времени необходимо прибавить поправку, которая равна 10 ч.

Смотрите также архив погоды в соседних городах и на ближайших метеорологических станциях:

Погода в Полтавке (Приморский край, Россия) (51 км)
Погода в Хороле (Приморский край, Россия) (62 км)
Погода в Многоудобном (Приморский край, Россия) (65 км)
Погода в Пограничном (Приморский край, Россия) (75 км)
Погода в Суйфэньхэ (Хэйлунцзян, Китай) (82 км)
Погода в Владивостоке (Приморский край, Россия) (85 км)
Погода в Барабаше (Приморский край, Россия) (86 км)
Погода в Анучино (Приморский край, Россия) (89 км)
Погода на Мысе Назимова (Приморский край, Россия) (92 км)
Погода в Астраханке (Приморский край, Россия) (94 км)

Пояснения к столбцам:

Ветер - указаны скорость ветра в м/с - средняя за 10 мин, порывы в срок и между сроками (в фигурных скобках) и направление, откуда дует ветер: С - северный, СВ - северо-восточный, В - восточный, ЮВ - юго-восточный, Ю - южный, ЮЗ - юго-западный, З - западный, СЗ - северо-западный.
Видимость - горизонтальная дальность видимости в метрах или километрах. При видимости от 1 до 10 км при отсутствии осадков обычно наблюдается дымка, при ухудшении видимости до 1 км и менее - туман. В сухую погоду видимость может ухудшаться дымом, пылью или мглою.
Явления - указаны атмосферные явления, наблюдавшиеся в срок или в последний час перед сроком; фигурными скобками обозначены явления, наблюдавшиеся между сроками (за 1-3 часа до срока); квадратными скобками обозначены град или гололедные отложения с указанием их диаметра в мм.
Облачность - указаны через наклонную черту общая и нижняя облачность в баллах и высота нижней границы облаков в метрах; квадратными скобками обозначены формы облаков: Ci - перистые, Cs - перисто-слоистые, Cc - перисто-кучевые, Ac - высококучевые, As - высокослоистые, Sc - слоисто-кучевые, Ns - слоисто-дождевые, Cu - кучевые, Cb - кучево-дождевые. Подробнее классификацию облаков см. в Атласе облаков (PDF).
T - Температура воздуха - температура, измеренная на высоте 2 м над землей.
Td - Температура точки росы - температура, при понижении до которой содержащийся в воздухе водяной пар достигнет насыщения.
f - Относительная влажность воздуха - влажноcть воздуха, измеренная на высоте 2 м над землей.
Te - Эффективная температура - температура, которую ощущает одетый по сезону человек в тени. Характеристика душности погоды. При расчете учитывается влияние влажности воздуха и скорости ветра на теплоощущения человека.
Tes - Эффективная температура на солнце - температура, которую ощущает человек, с поправкой на солнечный нагрев. Характеристика знойности погоды. Зависит от высоты солнца над горизонтом, облачности и скорости ветра. Ночью, в пасмурную погоду, а также при ветре 12 м/с и более поправка равна нулю.
P - Атмосферное давление - приведенное к уровню моря атмосферное давление.
Po - Атмосферное давление - измеренное на уровне метеостанции атмосферное давление.
Tmin - Минимальная температура - минимум температуры воздуха на высоте 2 м над землей.
Tmax - Максимальная температура - максимум температуры воздуха на высоте 2 м над землей.
R - Количество осадков - Количество выпавших осадков за период времени, мм. При наведении курсора мыши на число - период времени, за который выпало указанное количество осадков.
R24 - Количество осадков - Количество выпавших осадков за 24 часа, мм.
S - Снежный покров - Высота снежного покрова, см. При наведении курсора мыши на число - состояние снежного покрова и степень покрытия местности в баллах.